Regional Weather Roundup
Issued by NWS

Home | Current Version | Previous Version | Text Only | Print | Product List | Glossary Off
Versions: 1 2 3 4 5 6 7 8 9 10 11 12 13 14 15 16 17 18 19 20 21 22 23 24 25 26 27 28 29 30 31 32 33 34 35 36 37 38 39 40 41 42 43 44 45 46 47 48 49 50

000
ASUS43 KTOP 211008
RWRKS

WEATHER ROUNDUP FOR KANSAS
NATIONAL WEATHER SERVICE GOODLAND KS
400 AM CST WED FEB 21 2018

NOTE:  "FAIR" INDICATES FEW OR NO CLOUDS BELOW 12,000 FEET WITH NO
SIGNIFICANT WEATHER AND/OR OBSTRUCTIONS TO VISIBILITY.

KSZ001>006-013>018-027>032-041>047-211100-
NORTHWEST KANSAS

CITY           SKY/WX    TMP DP  RH WIND       PRES   REMARKS
GOODLAND       CLEAR      1  -4  79 W5        30.31F
HAYS           CLOUDY    12   2  64 N8        30.48S
HILL CITY      CLOUDY    12   5  73 NE3       30.46F
RUSSELL        CLOUDY    13   4  67 N10       30.47S WCI   0
$$

KSZ061>065-074>080-084>089-211100-
SOUTHWEST KANSAS

CITY           SKY/WX    TMP DP  RH WIND       PRES   REMARKS
DODGE CITY     CLOUDY    13   1  59 N15       30.39S WCI  -3
ELKHART        CLEAR     15   4  61 NE6       30.32R
GARDEN CITY    CLOUDY    12   1  61 N13       30.37F WCI  -3
GREAT BEND     CLOUDY    14   4  64 N15       30.47S WCI  -1
LIBERAL        CLOUDY    16   2  54 N16       30.36F WCI   1
PRATT          CLOUDY    14   5  67 N17G23    30.42F WCI  -3
$$

KSZ066>073-081>083-090>101-211100-
SOUTHEAST KANSAS

CITY           SKY/WX    TMP DP  RH WIND       PRES   REMARKS
CHANUTE        PTCLDY    20  15  81 N15G24    30.42  WCI   6
COFFEYVILLE    CLOUDY    23  18  81 N18       30.41R WCI   9
HUTCHINSON     CLOUDY    15   8  73 N13G22    30.46S WCI   1
MEDICINE LODGE   N/A     16   7  67 N18G29    30.42F WCI   0
NEWTON         CLOUDY    12   8  84 N16       30.45S WCI  -5
PARSONS        MOCLDY    22  18  85 N10       30.43S WCI  11
WICHITA INTL   CLOUDY    16  10  77 N17G25    30.44R WCI   0
WICHITA JABRA  CLOUDY    14  11  87 N16       30.45R WCI  -2
WICHITA MCCONL CLEAR     15  10  78 N17       30.44R WCI  -1
WINFIELD       PTCLDY    18  14  84 N21G29    30.43R WCI   1
$$

KSZ007>012-019>026-033>040-048>060-102>105-211100-
NORTHEAST KANSAS

CITY           SKY/WX    TMP DP  RH WIND       PRES   REMARKS
CONCORDIA      CLOUDY     9   3  77 N8        30.52R
EMPORIA        PTCLDY    15  10  80 N14       30.45F WCI   0
LAWRENCE       CLOUDY    17  12  80 NW13      30.50R WCI   4
MANHATTAN      CLOUDY    15   7  70 N7        30.53R
MARYSVILLE     CLOUDY    12   5  73 N10       30.53R WCI  -1
OLATHE IND     CLOUDY    17  13  84 N17       30.47R WCI   1
OLATHE EXE     CLOUDY    17  14  88 N14       30.46R WCI   3
SALINA         CLOUDY    14   6  70 N12       30.53R WCI   0
TOPEKA BILLARD CLOUDY    15  10  80 N12       30.53R WCI   2
TOPEKA FORBES  CLOUDY    16  10  77 N15G22    30.48R WCI   1
$$




USA.gov is the U.S. government's official web portal to all federal, state and local government web resources and services.